Campo, CA

4:23 AM PDT on October 15, 2019 (GMT -0700)
Campo

Weather History for KCZZ - August, 2019

Change the Weather History Date:

Wednesday, August 28, 2019

  Actual Average Record
Temperature  
Mean Temperature 76 °F 73 °F  
Max Temperature 92 °F 94 °F 106 °F (1981)
Min Temperature 59 °F 52 °F 35 °F (1973)
Degree Days  
Heating Degree Days 0 0  
Month to date heating degree days 0 0  
Since 1 June heating degree days 42 63  
Since 1 July heating degree days 6 7  
Cooling Degree Days 11 8  
Month to date cooling degree days 279 250  
Year to date cooling degree days 607 622  
Since 1 June cooling degree days 605 592  
Growing Degree Days 25 (Base 50)    
Moisture  
Dew Point 53 °F    
Average Humidity 48    
Maximum Humidity 72    
Minimum Humidity 23    
Precipitation  
Precipitation 0.00 in 0.02 in 1.14 in (1951)
Month to date precipitation 0.00 0.64  
Year to date precipitation 12.82 11.11  
Sea Level Pressure  
Sea Level Pressure 29.87 in    
Wind  
Wind Speed 7 mph (SE)    
Max Wind Speed 18 mph    
Max Gust Speed 23 mph    
T = Trace of Precipitation, MM = Missing Value Source: NWS Daily Summary

Daily Weather History Graph

Daily Weather History Graph

Search for Another Location

Airport or City:

Astronomy

Aug. 28, 2019 Rise Set
Actual Time 6:18 AM PDT 7:15 PM PDT
Civil Twilight 5:52 AM PDT 7:40 PM PDT
Nautical Twilight 5:22 AM PDT 8:10 PM PDT
Astronomical Twilight 4:52 AM PDT 8:41 PM PDT
Moon 4:05 AM PDT (8/28) 6:22 PM PDT (8/28)
Length of Visible Light 13h 48m
Length of Day
12h 57m
Waning Crescent, 4% of the Moon is Illuminated
Aug 28
Waning Crescent
Aug 30
New
Sep 5
First Quarter
Sep 13
Full
Sep 21
Last Quarter

Hourly Weather History & Observations

Time (PDT) Temp. Heat Index Dew Point Humidity Pressure Visibility Wind Dir Wind Speed Gust Speed Precip Events Conditions
12:52 AM 64.0 °F - 52.0 °F 65% 29.83 in - NE 4.6 mph - N/A   Unknown
1:52 AM 63.0 °F - 52.0 °F 67% 29.82 in - ENE 3.5 mph - N/A   Unknown
2:52 AM 63.0 °F - 52.0 °F 67% 29.81 in - NE 4.6 mph - N/A   Unknown
3:52 AM 62.1 °F - 52.0 °F 70% 29.82 in - NE 4.6 mph - N/A   Unknown
4:52 AM 60.1 °F - 51.1 °F 72% 29.83 in - NE 4.6 mph - N/A   Unknown
5:52 AM 61.0 °F - 51.1 °F 70% 29.85 in - NE 4.6 mph - N/A   Unknown
6:52 AM 64.0 °F - 51.1 °F 63% 29.87 in - ENE 4.6 mph - N/A   Unknown
7:52 AM 72.0 °F - 54.0 °F 53% 29.87 in - Calm Calm - N/A   Unknown
8:52 AM 81.0 °F 80.5 °F 54.0 °F 39% 29.88 in - Calm Calm - N/A   Unknown
9:52 AM 87.1 °F - 51.1 °F 29% 29.89 in - SSW 6.9 mph - N/A   Unknown
10:52 AM 89.1 °F - 46.0 °F 22% 29.90 in - SSW 11.5 mph - N/A   Unknown
11:52 AM 89.1 °F - 52.0 °F 28% 29.90 in - SW 9.2 mph - N/A   Unknown
12:52 PM 90.0 °F 87.5 °F 53.1 °F 28% 29.90 in - SW 8.1 mph - N/A   Unknown
1:52 PM 90.0 °F - 52.0 °F 27% 29.89 in - SW 17.3 mph - N/A   Unknown
2:52 PM 90.0 °F 87.5 °F 53.1 °F 28% 29.88 in - SW 13.8 mph - N/A   Unknown
3:52 PM 89.1 °F 87.3 °F 55.9 °F 32% 29.86 in - SW 16.1 mph - N/A   Unknown
4:52 PM 88.0 °F 86.5 °F 55.9 °F 34% 29.86 in - SSW 16.1 mph - N/A   Unknown
5:52 PM 86.0 °F 84.5 °F 55.0 °F 35% 29.85 in - SW 13.8 mph - N/A   Unknown
6:52 PM 80.1 °F 80.1 °F 55.0 °F 42% 29.86 in - SW 10.4 mph - N/A   Unknown
7:52 PM 75.0 °F - 55.0 °F 50% 29.86 in - SSW 6.9 mph - N/A   Unknown
8:52 PM 68.0 °F - 53.1 °F 59% 29.89 in - NNE 4.6 mph - N/A   Unknown
9:52 PM 66.9 °F - 53.1 °F 61% 29.89 in - NNE 3.5 mph - N/A   Unknown
10:52 PM 66.0 °F - 52.0 °F 60% 29.89 in - ENE 3.5 mph - N/A   Unknown
11:52 PM 63.0 °F - 52.0 °F 67% 29.90 in - NNE 4.6 mph - N/A   Unknown